Location: Godioouel Demba
(15.2344°N, 12.6611°W)
Time: 08:48:34
(UTC+00:00)

Daily predictions for brighter satellites

Satellite Brightness Start Highest point End
(mag) Time Altitude Azimuth Time Altitude Azimuth Time Altitude Azimuth
Delta 7925 Rocket 4.1 18:31:41 10° WSW 18:39:10 85° SSE 18:44:54 10° ENE
Cosmos 1400 Rocket 4.1 18:35:24 10° SSW 18:39:24 48° W 18:43:22 10° N
Envisat 3.9 18:34:53 10° S 18:39:51 56° W 18:44:48 10° NNW
GPS 2-12 Rocket1 3.3 18:38:09 10° W 18:42:34 66° SSW 18:46:56 10° ESE
Cosmos 1892 4.3 18:41:04 10° NE 18:43:33 16° E 18:46:01 10° ESE
SEDSat Delta rocket 4.1 18:38:45 10° WSW 18:45:34 88° NNW 18:52:11 10° ENE
Cosmos 1697 Rocket 3.2 18:41:27 10° SSW 18:46:59 65° WNW 18:52:32 10° N
Cosmos 2227 Rocket 3.5 18:46:15 10° NNE 18:49:54 17° ENE 18:53:32 10° ESE
YAOGAN 1 4.4 18:49:10 10° E 18:50:07 11° ENE 18:51:04 10° ENE
COSMO-SKYMED 1 3.0 18:49:02 10° N 18:53:20 69° WNW 18:57:37 10° SSW
CZ-4B R/B 4.3 18:52:37 10° NW 18:54:27 15° WNW 18:56:17 10° WSW
Cosmos 1812 Rocket 4.0 18:51:38 10° SSE 18:55:45 39° E 18:59:52 10° NNE
Okean O Rocket 2.5 18:52:45 10° S 18:57:02 54° WSW 19:01:18 10° NNW
S3M 3.9 18:51:09 10° S 18:57:12 67° E 19:03:14 10° N
CZ-4 R/B 2.9 18:55:14 10° ESE 18:57:31 15° ENE 18:59:46 10° NE
NOAA 11 4.1 18:53:41 10° SSE 18:59:06 69° ENE 19:04:30 10° N
ASC 2 Rocket 4.0 18:56:48 10° NW 19:00:33 33° NNE 19:04:11 14° ENE
Meteor 2-1 Rocket 4.1 18:55:35 10° S 19:01:06 77° E 19:06:36 10° N
Hubble Space Telescope 1.8 18:58:13 10° WNW 19:02:10 45° SSW 19:06:06 10° SE
Milstar 3 4.0 18:58:20 10° WNW 19:04:31 28° N 19:09:47 12° NE
Atlas Centaur 2 4.3 18:59:04 10° WNW 19:05:51 28° N 19:12:40 11° NE
Cosmos 1340 2.5 19:06:18 10° N 19:10:03 67° E 19:13:47 10° SSE
Cosmos 1980 Rocket 2.3 19:04:58 10° SSW 19:10:37 84° WNW 19:16:15 10° NNE
CCE 1 Rocket 4.0 19:08:24 10° WNW 19:12:43 73° NNE 19:19:14 12° ESE
Cosmos 1315 Rocket 3.3 19:09:27 10° SSW 19:13:19 62° W 19:17:13 10° N
CZ-2C R/B 4.0 19:10:32 10° SE 19:15:30 30° ENE 19:20:26 10° NNE
GPS 2-14 Rocket1 3.0 19:12:12 10° W 19:16:20 66° SSW 19:19:24 17° ESE
Meteor 2-15 Rocket 4.5 19:10:57 10° S 19:17:07 86° W 19:23:15 10° N
SWIFT 3.3 19:13:30 10° W 19:17:35 44° SSW 19:21:11 13° SE
Cosmos 1346 Rocket 3.4 19:15:08 10° NNE 19:18:45 33° E 19:22:21 10° SSE
DMSP B5D1-3 4.5 19:14:30 10° NNE 19:19:37 70° ESE 19:24:45 10° S
Cosmos 2058 3.3 19:16:29 10° NNE 19:20:17 37° E 19:24:06 10° SSE
Cosmos 1455 3.3 19:20:50 10° SSW 19:24:24 45° W 19:28:01 10° N
Cosmos 2297 Rocket 2.2 19:23:54 10° N 19:29:27 59° ENE 19:35:00 10° SSE
In-Cosmos 22 Rocket 4.3 19:25:36 10° N 19:31:04 80° W 19:36:41 10° S
EO 1 Delta rocket 4.2 19:29:50 18° NE 19:32:52 42° E 19:37:40 10° S
Okean-O 2.6 19:30:02 10° SSE 19:34:22 58° ENE 19:38:42 10° N
Timation 2 Rocket 4.4 19:28:00 10° NNW 19:34:47 76° WSW 19:41:38 10° S
H-2A R/B 3.2 19:31:06 10° SE 19:37:10 26° NE 19:40:20 10° NNE
CRYOSAT 2 4.3 19:33:19 10° N 19:38:10 87° E 19:43:02 10° S
CZ-2C R/B 1.8 19:38:50 10° SW 19:42:53 41° SE 19:43:09 40° SE
Cosmos 2322 Rocket 2.9 19:38:52 10° SSE 19:43:24 31° ESE 19:43:24 31° ESE
Elektron 3 4.5 19:42:53 10° NW 19:45:48 51° WSW 19:47:43 19° S
MOS 1 Rocket 4.5 19:51:28 10° N 19:56:16 47° WNW 20:01:19 10° SSW
Cosmos 1408 3.6 19:58:11 10° NNW 20:01:43 45° W 20:05:15 10° SSW
Cosmos 2219 3.9 19:57:30 10° NNW 20:03:06 55° WSW 20:08:39 10° S
CZ-3B R/B 4.4 19:58:25 10° WNW 20:05:04 32° NNW 20:05:29 31° N
Cosmos 968 Rocket 4.1 20:08:32 10° NNW 20:13:32 54° WSW 20:18:30 10° S
CSL-04 Rocket 4.4 20:08:17 10° SSE 20:15:54 40° N 20:19:21 10° N
CZ-2C R/B 2.5 20:15:04 88° SSE 20:15:04 88° SSE 20:20:16 10° SSW
SL-16 R/B 2.2 20:15:22 10° SSW 20:21:00 76° WNW 20:21:23 73° NW
Meteor 1-27 4.5 20:19:21 10° S 20:23:46 57° SSW 20:23:46 57° SSW
YAOGAN 1 4.1 20:21:55 10° SSW 20:25:49 34° W 20:29:44 10° NW
CZ-4 R/B 3.9 20:29:26 10° SW 20:32:17 19° W 20:35:05 10° NW
Cosmos 2227 Rocket 3.6 20:28:43 10° NW 20:33:50 36° WSW 20:38:56 10° SSW
Cosmos 1709 Rocket 4.5 20:33:13 10° NNW 20:39:28 59° W 20:45:39 10° S
ARIANE 5 R/B 3.6 20:32:02 10° W 20:40:38 31° SSW 20:40:38 31° SSW
Cosmos 2360 Rocket 4.5 20:37:35 10° S 20:38:07 13° S 20:38:07 13° S
Atlas Centaur 2 4.3 20:49:54 10° NW 20:55:15 28° NNW 20:55:15 28° NNW
